This is the latest recevied weather packets stored in our database for station/object s55g-5. If no packets are shown the sender has not sent any weather packets the latest 10 day(s).
| Time | Temp. | Humidity | Pressure | Rain* | Wind** | Luminosity | Snow |
|---|---|---|---|---|---|---|---|
| 1777737604 | 23.33° C | 40% | 1021.7 hPa | 0 mm | - | - | - |
| 1777736703 | 23.89° C | 40% | 1021.6 hPa | 0 mm | - | - | - |
| 1777736297 | 23.89° C | 39% | 1021.7 hPa | 0 mm | - | - | - |
| 1777731484 | 25° C | 39% | 1022.2 hPa | 0 mm | - | - | - |
| 1777730944 | 25° C | 41% | 1022.3 hPa | 0 mm | - | - | - |
| 1777730044 | 25° C | 41% | 1022.3 hPa | 0 mm | - | - | - |
| 1777728964 | 25° C | 40% | 1022.6 hPa | 0 mm | - | - | - |
| 1777723204 | 24.44° C | 34% | 1023.5 hPa | 0 mm | - | - | - |
| 1777718164 | 23.89° C | 34% | 1024.7 hPa | 0 mm | - | - | - |
| 1777714564 | 22.78° C | 35% | 1025.2 hPa | 0 mm | - | - | - |
| 1777710423 | 21.11° C | 44% | 1025.7 hPa | 0 mm | - | - | - |
| 1777707364 | 18.33° C | 52% | 1026 hPa | 0 mm | - | - | - |
| 1777705744 | 16.67° C | 58% | 1026.2 hPa | 0 mm | - | - | - |
| 1777703224 | 13.33° C | 67% | 1026.5 hPa | 0 mm | - | - | - |
| 1777699624 | 10° C | 79% | 1026.6 hPa | 0 mm | - | - | - |
| 1777698544 | 7.78° C | 82% | 1026.8 hPa | 0 mm | - | - | - |
| 1777696563 | 5.56° C | 91% | 1026.6 hPa | 0 mm | - | - | - |
| 1777694044 | 6.11° C | 88% | 1026.5 hPa | 0 mm | - | - | - |
| 1777693637 | 6.11° C | 89% | 1026.8 hPa | 0 mm | - | - | - |
| 1777691883 | 5.56° C | 90% | 1026.5 hPa | 0 mm | - | - | - |
| 1777690444 | 5.56° C | 90% | 1026.8 hPa | 0 mm | - | - | - |
| 1777688824 | 5.56° C | 90% | 1026.7 hPa | 0 mm | - | - | - |
| 1777682164 | 6.67° C | 85% | 1027 hPa | 0 mm | - | - | - |
| 1777676944 | 8.33° C | 79% | 1027 hPa | 0 mm | - | - | - |
| 1777674964 | 8.33° C | 80% | 1027.1 hPa | 0 mm | - | - | - |
* Rain latest hour (hover to see other rain measurements)
** Current wind speed in m/s (hover to see current wind gust speed)